This demonstration page uses our WeatherBlox Daily Observations layout. Learn more.

39.01783, -85.05884

Hourly Observations for March 24, 2019

Temp ( °F °C ) Dew Point ( °F °C ) Humidity (%) Winds ( mph kmh ) Pressure ( in mb ) Visibility ( mi km ) Precip ( " mm )
12:52 am 00:52 Mostly Cloudy 44 6.7 21 -6.1 40 40 SSW 5 7 30.24 1024 10 16.09344 0 0
1:52 am 01:52 Mostly Cloudy 40 4.4 24 -4.4 53 53 S 3 6 30.21 1023 10 16.09344 0 0
2:52 am 02:52 Mostly Cloudy 45 7.2 21 -6.1 39 39 S 5 7 30.21 1023 10 16.09344 0 0
3:52 am 03:52 Mostly Cloudy 45 7.2 21 -6.1 39 39 S 5 7 30.21 1023 10 16.09344 0 0
4:52 am 04:52 Cloudy 41 5 27 -2.8 57 57 Calm 30.21 1023 10 16.09344 0 0
5:52 am 05:52 Cloudy 43 6.1 25 -3.9 49 49 SE 5 7 30.18 1022 10 16.09344 0 0
6:52 am 06:52 Cloudy 44 6.7 21 -6.1 40 40 SE 5 7 30.18 1022 10 16.09344 0 0
7:52 am 07:52 Cloudy 45 7.2 22 -5.6 40 40 S 7 11 30.18 1022 10 16.09344 0 0
8:52 am 08:52 Cloudy 46 7.8 24 -4.4 42 42 S 6 9 30.18 1022 10 16.09344 0 0
9:52 am 09:52 Cloudy 49 9.4 23 -5 36 36 S 6 9 30.18 1022 10 16.09344 0 0
10:52 am 10:52 Cloudy 52 11.1 22 -5.6 31 31 S 6 9 30.18 1022 10 16.09344 0 0
11:52 am 11:52 Cloudy 55 12.8 21 -6.1 26 26 WSW 5 7 30.18 1022 10 16.09344 0 0
12:52 pm 12:52 Cloudy 60 15.6 20 -6.7 21 21 SW 8 13 30.15 1021 10 16.09344 0 0
1:52 pm 13:52 Cloudy 60 15.6 20 -6.7 21 21 VRB 7 11 30.12 1020 10 16.09344 0 0
2:52 pm 14:52 Cloudy 60 15.6 23 -5 24 24 SSW 8 13 30.09 1019 10 16.09344 0 0
3:52 pm 15:52 Cloudy with Light Rain 60 15.6 30 -1.1 32 32 SW 14 22 30.09 1019 10 16.09344 0.001 0.001
4:52 pm 16:52 Cloudy with Light Rain 53 11.7 44 6.7 72 72 SE 5 7 30.09 1019 10 16.09344 0.02 0.508
5:52 pm 17:52 Cloudy with Light Rain 51 10.6 44 6.7 77 77 S 3 6 30.06 1018 10 16.09344 0.01 0.254
6:52 pm 18:52 Cloudy with Light Rain 50 10 46 7.8 86 86 ESE 7 11 30.03 1017 10 16.09344 0.03 0.762
7:52 pm 19:52 Cloudy 50 10 45 7.2 83 83 E 5 7 30.03 1017 10 16.09344 0.001 0.001
8:52 pm 20:52 Cloudy 50 10 45 7.2 83 83 S 3 6 30.03 1017 10 16.09344 0 0
9:52 pm 21:52 Cloudy 51 10.6 45 7.2 80 80 SE 5 7 30.03 1017 10 16.09344 0 0
10:52 pm 22:52 Cloudy 51 10.6 46 7.8 83 83 SE 3 6 30.03 1017 10 16.09344 0 0
11:52 pm 23:52 Cloudy 50 10 45 7.2 83 83 ENE 6 9 30 1016 10 16.09344 0 0

Powered by AerisWeather